Wind_Speed
27 26 24 23 23 22 20 19 18 16 15 14 13 12 11 11 10 11 14 16 16 18 19 18 18 16 12 8 5 7 10 14 6 5 9 11 11 12 10 10 11 10 10
27 26 26 24 23 22 21 20 18 17 16 15 13 12 10 9 10 11 15 16 17 19 18 18 17 15 12 4 7 10 14 12 16 12 13 14 12 12 13 11 10 9 10
28 27 25 25 24 23 23 21 19 18 17 15 14 11 9 9 10 11 13 14 16 15 15 14 13 14 11 1 9 13 16 21 17 15 15 14 12 14 13 10 9 10 8
27 26 27 27 27 25 21 20 18 18 17 16 14 10 9 8 9 9 10 12 12 12 12 13 12 13 11 3 9 15 23 20 19 14 12 14 14 15 13 13 10 10 10
26 27 27 26 24 22 21 20 19 18 16 15 13 10 7 6 3 10 8 8 7 11 11 11 11 12 8 4 10 16 24 20 14 14 13 13 13 16 14 11 14 16 10
24 25 23 24 23 23 21 20 18 17 15 14 12 8 4 3 8 6 5 5 6 7 10 11 10 10 8 8 8 20 19 16 8 16 14 13 12 13 11 14 12 12 7
21 25 23 23 23 22 20 18 17 16 15 13 10 6 2 1 2 4 3 2 5 8 10 10 8 7 7 14 17 17 16 5 5 2 10 17 15 14 16 13 11 10 5
21 22 23 23 22 21 20 18 17 17 14 12 9 7 5 1 1 0 4 3 4 6 7 7 6 6 7 13 14 11 11 7 6 3 7 15 15 12 15 12 9 6 6
23 23 23 25 23 22 20 18 18 17 16 14 11 8 7 3 3 2 1 2 7 5 5 6 4 5 9 11 8 10 12 7 6 6 9 10 17 15 15 12 11 8 7
22 22 22 23 23 22 21 20 19 19 19 14 12 10 8 4 4 3 1 3 3 2 4 4 2 4 6 8 6 8 9 7 8 7 8 9 12 11 17 10 13 10 8
19 19 19 21 23 22 25 25 27 21 18 19 13 11 9 6 5 4 3 5 4 4 4 3 1 2 4 7 3 5 7 9 10 7 8 9 10 11 12 9 9 10 9
13 16 21 24 26 29 30 30 25 26 23 16 15 12 9 7 7 6 6 4 4 3 2 2 1 4 5 6 2 5 8 12 10 9 11 11 11 10 11 11 10 7 2
19 18 17 15 22 27 32 29 28 26 22 19 17 15 14 10 6 8 9 10 6 5 3 1 4 6 6 3 2 7 10 7 8 9 8 10 11 12 10 10 6 7 3
17 17 23 20 20 23 24 26 24 23 22 20 17 17 15 14 9 5 3 2 4 6 5 3 5 6 3 4 4 7 5 4 3 4 6 5 8 9 8 8 10 9 11
14 13 13 23 25 23 17 17 9 11 7 16 16 16 17 16 9 10 8 5 3 4 3 3 2 3 3 3 4 5 5 4 6 3 3 7 7 9 10 10 12 13 12
17 15 14 13 12 15 20 26 27 7 9 13 11 13 14 17 16 13 12 9 6 4 5 5 3 3 1 3 6 2 1 4 3 3 6 7 8 9 9 8 8 8 7
23 19 22 18 12 12 13 16 26 21 24 9 9 11 10 15 15 14 12 12 8 6 5 3 3 3 5 3 3 1 2 0 2 6 7 4 1 3 3 7 9 8 10
23 27 25 23 21 19 17 17 21 21 23 18 10 10 10 10 14 14 15 14 8 3 5 2 1 2 4 3 4 4 3 2 5 8 11 11 10 9 11 14 11 11 11
23 23 23 23 22 23 20 19 18 17 16 19 16 10 11 11 13 10 10 7 9 7 4 4 0 1 2 2 4 3 4 4 3 2 9 13 14 8 11 12 14 11 12
21 28 29 25 24 24 21 19 17 17 15 14 13 11 11 9 8 7 6 7 8 6 7 1 1 1 3 2 3 3 3 4 5 3 3 3 6 10 14 14 10 15 14
20 23 27 26 24 20 16 16 16 15 14 12 10 9 10 5 9 7 9 7 7 7 7 2 2 2 2 3 3 2 2 2 3 4 6 6 7 7 8 9 15 14 16
18 24 23 23 18 20 17 14 14 14 13 12 8 10 11 7 7 6 6 9 9 9 5 3 1 2 3 4 4 5 5 3 5 7 6 7 9 9 10 11 12 12 15
19 21 29 28 27 22 19 11 3 13 13 13 12 11 7 7 7 6 6 10 11 8 5 2 3 3 3 4 3 4 4 4 5 8 9 9 10 10 11 14 13 13 14
24 22 21 29 28 24 20 22 10 13 16 12 15 13 11 9 8 8 8 10 8 5 3 2 3 3 4 3 4 1 2 3 9 10 10 12 13 13 12 14 14 14 16
23 26 16 20 17 22 22 20 17 16 15 11 10 11 10 9 9 8 9 6 6 5 3 4 4 4 4 6 5 1 5 11 12 10 10 13 16 17 18 18 20 18 17
22 22 19 20 16 16 16 16 14 14 14 12 10 10 10 10 8 7 6 5 4 3 2 1 2 3 4 4 4 10 12 11 13 15 17 17 17 18 19 20 20 21 22
Wind_Direction
203 204 207 210 213 217 223 229 234 239 244 249 257 266 276 287 297 298 301 304 315 316 315 318 318 326 327 265 206 195 174 158 131 140 157 137 138 143 132 131 141 142 148
201 202 201 205 208 212 215 220 223 229 237 242 249 260 270 281 292 306 311 318 314 313 323 331 335 336 336 204 186 179 158 154 139 145 141 151 154 145 146 150 159 152 145
200 203 201 202 205 210 212 215 221 227 234 240 242 251 265 280 300 306 311 321 318 322 329 334 334 335 340 307 170 162 147 149 154 152 150 159 160 154 153 165 175 155 145
197 199 204 203 204 207 210 211 219 227 231 234 237 244 259 284 298 309 323 321 323 332 335 335 342 342 339 89 158 150 147 152 161 144 150 161 159 161 161 158 167 163 149
198 200 203 206 208 207 207 214 220 220 225 226 227 231 245 276 303 316 327 334 351 344 350 351 360 358 357 124 145 155 151 159 166 144 156 170 161 170 162 178 168 161 161
197 201 203 202 205 207 208 208 210 214 216 213 218 225 229 299 310 352 351 346 0 4 359 2 10 22 61 107 124 149 151 162 190 149 160 183 167 190 166 170 175 164 170
209 202 203 200 200 197 196 199 204 205 204 196 198 164 176 17 38 8 24 13 7 13 12 9 21 44 88 114 124 142 154 120 163 221 166 172 174 190 170 175 207 189 159
220 207 203 198 196 191 192 197 195 193 188 181 149 173 156 61 173 66 109 68 55 39 22 22 47 77 113 131 136 140 142 106 158 255 177 155 167 181 175 172 162 130 139
219 213 205 197 193 190 194 192 184 169 157 140 161 165 140 114 124 127 353 109 51 62 28 21 67 108 135 141 148 147 152 147 143 118 157 160 161 166 164 160 162 188 176
227 213 203 192 190 187 182 172 161 153 149 158 150 140 139 113 112 107 85 337 97 43 27 28 85 113 146 152 158 163 166 155 152 145 141 133 161 163 164 181 169 193 177
238 213 196 186 176 171 158 156 157 152 155 142 145 151 145 134 78 84 86 47 17 13 88 21 40 148 139 160 148 175 177 163 148 141 142 160 171 173 186 208 208 209 205
260 197 197 184 173 158 152 152 154 145 140 149 157 161 147 132 69 35 40 38 41 20 29 24 97 153 144 143 113 155 155 155 166 175 183 171 179 193 213 218 215 221 269
234 204 185 167 169 162 151 153 149 150 158 166 170 164 153 145 122 50 63 51 48 84 42 293 153 136 122 123 140 142 143 167 176 206 204 182 187 180 197 190 221 233 228
225 187 178 190 174 161 155 158 167 168 169 166 172 170 152 147 133 101 83 121 77 74 46 83 165 149 144 130 126 162 214 218 250 218 167 165 161 151 181 184 209 216 228
208 183 202 144 162 158 129 146 92 1 193 165 170 163 158 148 141 129 106 99 96 108 122 96 166 183 197 215 240 212 215 183 199 196 211 179 192 182 195 192 223 215 247
185 176 164 159 130 146 121 121 127 119 26 132 152 153 138 148 145 142 128 119 109 110 99 106 91 99 125 269 315 320 233 190 205 195 199 199 201 217 197 191 216 256 231
189 176 166 165 165 146 128 131 112 137 169 162 172 140 138 150 143 145 142 123 120 148 122 114 114 84 75 52 39 348 317 321 224 237 243 262 231 212 190 209 225 245 245
214 182 174 176 171 155 155 150 149 156 142 142 148 148 139 147 131 149 146 133 141 134 119 116 144 104 83 73 57 31 3 325 220 226 242 239 260 224 210 224 225 233 229
225 178 175 166 149 152 160 156 162 167 161 140 137 120 128 121 118 145 144 136 137 138 125 134 215 65 68 41 52 34 29 359 341 280 245 257 270 274 247 240 231 229 239
226 183 169 165 158 160 168 164 166 158 141 148 147 140 148 144 138 147 140 130 137 124 110 89 154 299 50 20 34 19 18 10 349 335 326 290 269 258 282 269 252 245 232
198 185 165 156 155 153 166 164 159 150 148 147 140 164 175 159 136 149 138 126 103 111 96 88 347 340 335 315 337 323 346 347 348 351 336 322 308 298 278 279 277 274 262
167 159 143 140 149 158 156 154 152 158 149 134 123 138 129 121 140 154 134 115 101 81 80 74 25 358 26 333 318 308 298 318 324 333 334 326 324 310 296 285 285 292 276
118 113 119 126 125 114 111 89 121 148 139 141 143 144 144 128 141 143 139 107 89 93 85 72 56 39 32 17 1 358 349 11 340 330 320 311 306 306 304 294 282 278 275
109 114 113 123 128 126 136 131 185 138 134 135 123 131 140 145 135 135 109 93 96 92 84 58 48 39 17 6 344 10 58 343 332 327 320 314 307 302 294 286 285 281 274
129 124 130 129 142 135 142 146 154 146 132 140 139 141 146 141 125 108 100 102 100 93 71 45 38 32 2 342 346 309 309 315 312 303 318 304 298 295 290 285 279 274 271
123 129 132 124 128 148 150 149 141 130 131 137 148 146 133 122 118 115 104 95 93 89 72 45 335 342 332 323 293 309 314 322 329 321 311 304 295 291 286 282 281 278 270
Height
767 771 775 779 782 786 788 790 792 793 794 795 795 795 795 795 794 793 791 788 787 784 781 779 775 773 771 770 771 773 776 778 783 787 790 793 796 797 801 803 805 808 809
760 764 768 772 776 780 782 785 788 789 791 791 792 792 792 792 791 790 788 786 784 781 778 775 773 772 770 768 769 772 775 779 782 787 791 794 797 799 802 805 807 808 810
754 759 763 766 770 774 777 780 783 785 786 787 788 790 790 790 789 788 786 784 782 780 777 775 773 770 768 767 769 772 776 779 782 785 791 794 798 801 804 806 808 809 811
746 752 757 760 763 768 773 776 779 781 782 784 785 786 787 788 787 785 784 783 781 779 777 775 772 771 769 768 769 772 776 780 785 787 792 794 797 801 802 806 809 810 812
740 745 749 755 760 764 767 771 773 776 778 780 782 783 785 786 783 783 783 782 780 779 777 776 774 772 769 769 770 773 777 779 784 787 792 794 796 798 801 804 806 809 813
736 740 745 750 754 758 762 766 769 772 774 777 779 782 784 784 783 782 782 782 781 780 778 776 776 774 772 771 772 775 779 781 784 787 789 794 796 798 798 802 806 808 812
732 736 740 744 748 752 757 762 765 768 772 774 777 780 783 784 783 782 781 782 782 781 780 779 777 777 775 775 777 779 781 782 783 783 784 789 795 797 799 802 805 805 808
729 731 735 739 743 748 753 757 761 765 769 772 775 780 781 781 782 782 781 781 781 782 781 780 778 778 777 778 781 783 784 785 785 785 786 788 792 797 799 802 805 807 809
725 728 729 732 738 742 748 753 757 762 766 770 775 779 780 780 780 780 780 781 781 782 782 780 780 779 779 780 783 784 785 786 787 787 788 790 792 797 800 802 805 808 808
722 724 726 727 731 736 742 747 753 760 763 769 774 777 779 780 779 779 779 778 780 781 782 782 782 781 782 783 785 786 788 789 790 791 793 795 795 799 801 804 805 806 806
721 722 726 728 729 733 737 743 748 755 763 767 773 776 777 779 778 778 779 780 780 779 782 782 783 783 783 784 784 786 789 790 792 795 796 797 800 802 804 804 805 806 807
717 719 721 722 724 726 733 739 746 750 756 765 769 773 775 776 777 777 778 779 780 781 782 782 782 783 784 784 786 785 786 789 792 793 793 796 798 802 804 804 805 806 806
718 712 716 720 720 724 726 735 742 746 750 757 760 761 765 772 776 777 777 778 779 781 782 782 782 783 785 785 787 788 789 789 790 789 789 791 795 796 800 803 806 807 808
715 716 699 721 730 723 729 735 743 742 743 748 753 753 758 763 769 773 776 777 778 780 782 783 784 783 786 787 788 789 789 788 787 788 789 791 793 797 800 802 804 806 806
716 720 697 687 722 723 726 731 741 753 747 747 750 753 753 759 765 768 772 777 778 777 781 783 785 785 785 786 787 787 788 789 789 788 788 790 793 795 798 800 802 803 803
716 718 722 725 719 719 723 728 719 752 763 755 761 758 755 755 759 765 768 773 777 779 780 781 786 786 785 786 786 786 786 787 789 789 789 790 792 794 794 797 800 802 802
714 718 719 722 730 728 731 734 728 750 749 760 774 764 763 760 759 765 769 770 775 779 780 782 786 787 785 787 787 787 788 789 789 789 790 791 792 793 795 796 797 799 799
711 712 715 720 724 732 736 737 739 750 745 755 765 766 762 765 758 764 767 767 772 778 778 783 786 786 785 787 788 788 788 787 788 789 790 790 790 791 792 794 795 796 796
710 708 712 716 720 727 736 741 747 752 755 752 755 760 762 764 762 769 769 766 768 772 776 781 787 787 786 788 788 788 788 789 789 789 789 789 789 788 789 790 791 793 794
706 706 710 714 720 725 733 736 739 745 748 751 753 759 763 764 766 769 769 769 770 770 772 782 786 788 786 787 788 789 789 789 789 789 787 787 786 786 787 787 788 788 789
703 707 708 714 719 725 731 736 739 743 748 753 756 760 761 761 763 768 769 773 771 774 772 780 784 787 787 788 788 788 788 789 789 788 787 786 785 783 784 785 785 785 784
700 703 708 713 720 729 732 738 741 746 750 754 758 761 763 765 767 772 774 771 775 774 779 783 785 786 785 788 789 789 788 788 789 789 787 787 783 782 782 781 781 782 782
701 704 706 713 720 728 736 739 749 746 748 755 762 764 766 769 772 774 776 771 771 776 782 785 785 787 787 787 788 789 788 788 788 787 786 784 784 783 781 779 778 778 778
707 711 713 717 723 730 736 733 753 750 751 757 762 764 768 771 772 775 774 771 774 778 781 784 784 786 787 788 789 789 789 787 788 786 785 784 782 780 779 777 776 773 773
714 713 720 725 729 729 738 741 749 749 751 758 762 764 769 771 772 772 772 775 775 778 781 782 784 784 786 789 787 786 788 786 784 783 782 782 780 776 776 773 771 769 768
716 720 723 722 730 739 743 743 745 747 749 758 765 766 767 768 770 773 773 775 777 778 780 782 783 783 785 787 785 785 785 784 781 780 778 776 775 771 769 768 766 763 760